{"data":{"norad_id":57328,"intl_designator":"2023-099A","name":"STARLINK-6290","alt_names":[],"object_type":"PAYLOAD","status":"ACTIVE","operator":null,"country":"US","launch_date":"2023-07-16","launch_site_code":"AFETR","launch_vehicle":null,"mission":null,"orbit_class":"UNKNOWN","rcs_meters":null,"size_class":null,"mass_kg":null,"dimensions":null,"purposes":["comms"],"wikipedia_slug":null,"has_3d_model":false,"image_url":null,"decayed_at":null,"tle_current":{"epoch":"2026-09-20T15:06:40.588416Z","epoch_age_seconds":113125,"freshness":"FRESH","line1":"1 57328U 23099A   26263.62963644 -.00000029  00000+0  84831-5 0  9997","line2":"2 57328  43.0056 231.1727 0000976 314.6151  45.4621 15.27577066176801","mean_motion":15.27577066,"eccentricity":9.76e-5,"inclination_deg":43.0056,"raan_deg":231.1727,"arg_perigee_deg":314.6151,"mean_anomaly_deg":45.4621,"bstar":8.4831e-6,"rev_number":17680,"period_min":94.26692977073,"perigee_km":482.38822888478,"apogee_km":483.72753412565,"semimajor_km":6861.1948815052,"source":"CELESTRAK","updated_at":"2026-09-21T09:00:33.595717Z"}}}